Regional Weather Roundup
Issued by NWS Green Bay, WI

Home | Current Version | Previous Version | Text Only | Print | Product List | Glossary On
Versions: 1 2 3 4 5 6 7 8 9 10 11 12 13 14 15 16 17 18 19 20 21 22 23 24 25 26 27 28 29 30 31 32 33 34 35 36 37 38 39 40 41 42 43 44 45 46 47 48 49 50
000
ASUS43 KGRB 262111
RWRGRB

NORTH-CENTRAL AND NORTHEAST WISCONSIN REGIONAL WEATHER ROUNDUP
NATIONAL WEATHER SERVICE GREEN BAY WI
400 PM CDT TUE MAY 26 2015

WIZ005-009-010>012-018-019-262200-
NORTH CENTRAL WISCONSIN

CITY           SKY/WX    TMP DP  RH WIND       PRES   REMARKS
IRONWOOD       CLOUDY    55  52  88 CALM      29.78F
MANITOWISH WTR DRIZZLE   60  60  99 NE6       29.78F
ARBOR VITAE    RAIN      64  62  93 N3        29.77F
EAGLE RIVER    RAIN      65  64  94 CALM      29.76F
LAND O LAKES   RAIN      62  58  87 N9        29.79S
RHINELANDER    LGT RAIN  64  59  83 CALM      29.76F
PHILLIPS       RAIN      64  63  99 N6        29.73F
ANTIGO         LGT RAIN  64  62  93 NE10      29.72F
TOMAHAWK       LGT RAIN  62  60  94 N3        29.74F
MERRILL        LGT RAIN  64  64 100 NE7       29.71F
$$

WIZ013-073-262200-
NORTHEAST WISCONSIN

CITY           SKY/WX    TMP DP  RH WIND       PRES   REMARKS
IRON MOUNTAIN  LGT RAIN  64  62  93 E6        29.76F FOG
MARINETTE      CLOUDY    63  57  82 E6        29.74F
OCONTO         CLOUDY    64  64 100 S6        29.73F
$$

WIZ017-030-035>037-045-262200-
CENTRAL WISCONSIN

CITY           SKY/WX    TMP DP  RH WIND       PRES   REMARKS
MEDFORD        LGT RAIN  64  62  92 NE10      29.70F
WAUSAU         CLOUDY    64  61  90 NE7       29.68F
MOSINEE        CLOUDY    64  63  94 NE13      29.72F
MARSHFIELD     CLOUDY    67  60  78 NE9       29.68F
WISC RAPIDS    LGT RAIN  65  60  84 NE9       29.67F
STEVENS POINT  CLOUDY    64  62  94 NE9       29.69F
WAUPACA        RAIN      68  67  97 E7        29.67F
SHAWANO        RAIN      70  66  86 SE10      29.71F
CLINTONVILLE   RAIN      66  64  94 E7        29.69F
$$

WIZ038-039-048-051-262200-
FOX VALLEY

CITY           SKY/WX    TMP DP  RH WIND       PRES   REMARKS
NWS GREEN BAY  LGT RAIN  66  64  93 SE15      29.70F FOG
APPLETON       RAIN      64  64 100 E16       29.69F FOG
OSHKOSH        CLOUDY    69  64  84 S9        29.65F
FOND DU LAC    PTSUNNY   72  65  78 S17       29.66F
$$

WIZ022-050-052-262200-
EAST CENTRAL WISCONSIN

CITY           SKY/WX    TMP DP  RH WIND       PRES   REMARKS
STURGEON BAY   CLOUDY    64  61  88 SE9       29.76F
MANITOWOC      FOG       60  60 100 SE15G21   29.71F VSB 1/4
SHEBOYGAN      CLOUDY    63  61  93 S18G29    29.71F FOG
$$

LMZ563-521-522-541>543-262200-
LAKESHORE

STATION/POSITION TIME  TEMP    WIND        PRES    VSBY  WAVE
                       AIR SEA DIR/SP/G                  HT/PER
                 (UTC) (F)     (DEG/KT/KT) (MB)    (MI)  (FT/S)
SHEBOYGAN LKSHOR 2100   51     180/ 10/ 12 1006.3S
KEWAUNEE LKSHORE 2000   49     160/  2/  5 1008.1F
NORTHPORT PIER   2020   61     160/  9/ 22 1008.8F
N MID LAKE BUOY  2050   49 37  230/  6/  6 1008.7F         3/ 5
SISTER BAY LKSHO 2003   64     160/ 17/ 25   N/A
STURGEON BAY CG  2055   51     130/  3     1008.4F   5/8   3
CHAMBERS ISLAND  2000   63     130/  6/ 11 1009.1F
MENOMINEE LKSHOR 2000   56     140/  9/ 10 1009.2F
$$


USA.gov is the U.S. government's official web portal to all federal, state and local government web resources and services.